TIME,DELAY(SENSOR),PRES,T(CTD),SAL,OXYGEN,RAWTEMP,T(OPTODE),TCPHASE,FLUOR,BETA(BETA700),BETA(BETA412),BETA(BETA440),CDOM,C(CSC),ED(ED411.90),ED(ED443.80),ED(ED489.40),ED(ED554.70),LU(LU412.20),LU(LU443.80),LU(LU489.40),LU(LU555.00),COMP,TILTX,TILTX(TILTY),CHECK
1338564863,5801,497.0400085449219000,15.7010002136230470,36.1241989135742200,212.3365020751953000,245.4826049804687500,15.6987304687500000,33.7287712097168000,50,108,102,79,68,15427,2147476809,2147773430,2147564708,2147801389,2147315382,2147468891,2147723766,2148245357,2016,6,13,46655
1338564992,5805,485.9599914550781000,15.8394002914428710,36.1519012451171900,214.1623992919922000,241.0095062255859400,15.8347301483154300,33.5640602111816400,50,108,102,80,71,15430,2147472000,2147774692,2147562176,2147801298,2147312832,2147466221,2147725577,2148238747,2902,6,13,34921
1338565119,5802,475.3800048828125000,16.0090007781982420,36.1842994689941400,215.8448028564453000,235.3106994628906200,16.0079898834228500,33.3911399841308600,50,109,102,80,68,15430,2147474459,2147776256,2147562102,2147798162,2147310875,2147473755,2147719524,2148245302,3391,7,13,16499
1338565248,5804,464.9299926757812500,16.2542991638183600,36.2296981811523440,218.6215972900390600,227.5050964355468800,16.2453098297119140,33.1315307617187500,50,107,101,79,69,15429,2147476150,2147774829,2147562432,2147802441,2147314368,2147470628,2147715958,2148236370,480,7,13,11897
1338565387,5803,453.6300048828125000,16.3841991424560550,36.2557983398437500,221.6269073486328000,223.0102996826172000,16.3819694519042970,32.9093284606933600,50,107,101,79,70,15428,2147481526,2147771904,2147562139,2147800100,2147312603,2147471341,2147719753,2148243474,380,7,13,14873
1338565528,5802,441.9200134277344000,16.4925994873046880,36.2778015136718750,223.7124938964843800,219.5272064208984400,16.4878692626953120,32.7520294189453100,50,107,101,81,69,15430,2147479698,2147772553,2147565659,2147800557,2147314761,2147474020,2147716598,2148236909,738,7,13,56023
1338565655,5802,430.9599914550781000,16.6655998229980470,36.3123016357421900,225.0601959228515600,213.3399963378906200,16.6760005950927730,32.5965309143066400,50,109,101,80,69,15426,2147481307,2147768548,2147561920,2147799396,2147312786,2147471131,2147716342,2148242102,879,7,13,31046
1338565770,5804,420.6000061035156000,16.7912006378173830,36.3358993530273440,226.8229980468750000,209.6475982666015600,16.7882804870605470,32.4552803039550800,50,107,101,79,68,15427,2147484553,2147769024,2147559213,2147796105,2147316626,2147470564,2147715520,2148234157,937,7,13,17399
1338565899,5803,408.6700134277344000,16.9279003143310550,36.3639984130859400,228.4371032714843800,204.9246063232422000,16.9319095611572270,32.3082885742187500,50,108,102,80,67,15428,2147478692,2147769910,2147560420,2147797760,2147314203,2147475062,2147715181,2148234468,441,7,13,54669
1338566026,5805,396.6199951171875000,17.0209999084472660,36.3829002380371100,230.9393005371093800,202.1327056884765600,17.0168209075927730,32.1449203491210940,50,109,101,81,67,15427,2147479926,2147770450,2147562377,2147796626,2147312768,2147478400,2147716873,2148242596,572,7,13,1647
1338566143,5801,385.4200134277344000,17.1035003662109380,36.4000015258789060,232.2113952636718800,199.2942962646484400,17.1031494140625000,32.0430488586425800,50,108,101,81,68,15427,2147483227,2147769161,2147560146,2147798080,2147314541,2147473728,2147718930,2148238390,609,7,13,27132
1338566258,5803,374.5599975585937500,17.2038002014160160,36.4192008972168000,233.3491973876953000,196.1239013671875000,17.1995906829834000,31.9438304901123050,50,110,100,79,67,15426,2147484909,2147770797,2147561188,2147795675,2147315437,2147474477,2147716726,2148244800,1119,7,13,36053
1338566385,5805,362.7600097656250000,17.2616004943847660,36.4290008544921900,234.3282012939453000,194.1670074462890600,17.2591209411621100,31.8692893981933600,50,112,101,81,68,15424,2147485659,2147768585,2147563602,2147793133,2147315803,2147475364,2147713188,2148237915,1365,7,13,61918
1338566502,5805,351.9500122070312500,17.3162002563476560,36.4361000061035160,233.0850982666015600,192.4290008544922000,17.3119907379150400,31.9063892364501950,50,110,101,80,68,15422,2147486528,2147770331,2147564534,2147797677,2147312036,2147474797,2147711570,2148237494,1611,7,13,35770
1338566617,5802,341.5000000000000000,17.3929996490478500,36.4500999450683600,232.9217987060547000,189.8305053710937500,17.3910503387451170,31.8785896301269530,50,111,101,81,67,15419,2147484827,2147772013,2147565568,2147793316,2147312137,2147475236,2147713609,2148242596,1973,7,13,27616
1338566744,5805,330.3200073242187500,17.4643993377685550,36.4598007202148440,232.4989929199218800,187.2402038574218800,17.4698600769042970,31.8642005920410160,50,113,101,81,68,15417,2147485613,2147773613,2147565549,2147794276,2147316379,2147479104,2147718098,2148236754,1918,7,13,54079
1338566873,5803,319.3200073242187500,17.5303001403808600,36.4706993103027340,233.0278930664062500,185.2597045898437500,17.5301208496093750,31.8113708496093750,50,115,102,82,68,15413,2147484397,2147769133,2147569600,2147794038,2147313609,2147476772,2147720960,2148242267,2099,7,13,3547
1338567000,5803,309.0000000000000000,17.5849990844726560,36.4793014526367200,232.9819946289062500,183.5252990722656200,17.5828990936279300,31.7898597717285160,50,115,103,82,67,15411,2147485056,2147771840,2147574198,2147796096,2147315757,2147476278,2147719972,2148241280,3101,7,13,31098
1338567129,5804,299.0199890136719000,17.6735992431640620,36.4953994750976560,233.8152008056640600,180.5771026611328000,17.6726303100585940,31.7090797424316400,49,114,102,81,66,15410,2147486189,2147769188,2147574811,2147795117,2147313709,2147474944,2147721627,2148243995,3279,7,13,21782
1338567280,5804,287.7999877929687500,17.7663993835449220,36.5074996948242200,234.6042938232422000,177.6302947998047000,17.7623195648193360,31.6312294006347660,50,115,102,82,67,15412,2147488859,2147776064,2147581238,2147792777,2147313042,2147476982,2147730742,2148243922,304,7,13,55548
1338567440,5803,275.5100097656250000,17.8488998413085940,36.5141983032226560,233.8041992187500000,174.4598999023437500,17.8588409423828120,31.6271095275878900,50,117,102,82,66,15410,2147486509,2147780845,2147595602,2147791808,2147315346,2147482541,2147733805,2148244891,870,7,12,57764
1338567565,5802,263.1600036621094000,17.9535007476806640,36.5250015258789060,232.1007995605468800,171.5231933593750000,17.9482498168945300,31.6701908111572270,50,118,101,81,67,15408,2147488347,2147783030,2147612406,2147794322,2147314322,2147485878,2147740864,2148245001,1696,7,12,13297
1338567680,5804,251.3300018310547000,18.0683994293212900,36.5386009216308600,231.7077941894531200,167.7985992431640600,18.0616703033447270,31.6389694213867200,50,116,102,81,67,15403,2147491574,2147789760,2147632100,2147792329,2147320722,2147491858,2147753572,2148241993,2153,7,13,1843
1338567785,5802,240.3500061035156200,18.1756992340087900,36.5503005981445300,230.2406005859375000,163.4889984130859400,18.1929302215576170,31.6528892517089840,50,116,103,81,68,15407,2147492736,2147797458,2147663552,2147792722,2147314742,2147498148,2147777088,2148240749,2533,7,12,52358
1338567900,5802,228.5800018310547000,18.5153999328613280,36.5745010375976560,228.6656951904297000,153.1380004882812500,18.5083293914794920,31.5911998748779300,50,117,103,83,68,15401,2147497280,2147814528,2147705746,2147792749,2147317979,2147509083,2147797677,2148245696,3300,7,12,3215
1338568003,5804,218.3800048828125000,18.8810997009277340,36.5957984924316400,229.5848999023437500,141.0343933105468800,18.8774108886718750,31.3839492797851560,51,118,103,83,66,15402,2147501156,2147838765,2147767972,2147792484,2147317723,2147520237,2147831908,2148250569,236,8,12,63910
1338568144,5805,208.4400024414062500,19.1854991912841800,36.6054992675781250,243.1437072753906200,131.1006011962890600,19.1805591583251950,30.6099205017089840,52,116,101,82,64,15404,2147504704,2147870153,2147838966,2147790729,2147321737,2147545609,2147877440,2148248768,1005,7,13,24913
1338568355,5805,198.3300018310547000,19.3148994445800780,36.6088981628418000,253.7899017333984400,126.8711013793945300,19.3097095489501950,30.0806503295898440,54,116,103,83,64,15400,2147508242,2147910674,2147940269,2147792658,2147326006,2147578468,2147940909,2148251364,548,8,13,6211
1338568436,5805,193.9600067138672000,19.3393001556396500,36.6092987060546900,256.0022888183594000,126.0344009399414000,19.3352603912353500,29.9743309020996100,52,118,101,82,64,15397,2147515922,2147934674,2148000557,2147790564,2147318262,2147599945,2147977536,2148254290,771,7,13,50873
1338568503,5803,190.2200012207031200,19.3411998748779300,36.6082000732421900,257.4448852539062500,125.9968032836914000,19.3364105224609380,29.9121303558349600,52,118,103,82,64,15400,2147526555,2147963638,2148058432,2147789531,2147325330,2147616694,2148015232,2148256073,836,7,13,9427
1338568570,5803,186.4700012207031200,19.3425006866455080,36.6060981750488300,258.1622009277344000,125.8436965942382800,19.3410892486572270,29.8796806335449220,52,120,102,84,64,15400,2147527085,2147990061,2148114294,2147789604,2147327835,2147634496,2148052470,2148257929,573,7,12,26455
1338568649,5803,181.9600067138672000,19.3498992919921880,36.6031990051269500,259.1227111816406000,125.6473007202148400,19.3470897674560550,29.8364696502685550,53,118,102,82,64,15399,2147538176,2148024841,2148200475,2147792100,2147334491,2147661056,2148105837,2148259245,537,7,13,32507
1338568718,5805,178.0000000000000000,19.3586006164550780,36.6017990112304700,260.0291137695312500,125.3707962036132800,19.3555297851562500,29.7944602966308600,54,118,103,82,63,15396,2147545453,2148059922,2148285193,2147793426,2147335798,2147683739,2148156132,2148265554,694,7,12,44225
1338568785,5804,174.2400054931640600,19.3757991790771500,36.6041984558105500,260.3847961425781000,124.7378005981445300,19.3748703002929700,29.7713794708251950,58,124,104,84,63,15390,2147556141,2148097654,2148370285,2147791780,2147340534,2147717376,2148209929,2148268379,791,7,12,44258
1338568852,5802,170.5800018310547000,19.3840007781982420,36.6041984558105500,261.1451110839844000,124.5643997192382800,19.3801708221435550,29.7373294830322270,59,126,104,83,64,15389,2147561901,2148106633,2148379072,2147787766,2147340589,2147722496,2148221193,2148264365,840,7,12,56239
1338568931,5805,166.5500030517578000,19.3806991577148440,36.6022987365722660,261.5744934082031000,124.6512985229492200,19.3775100708007800,29.7203407287597660,62,126,103,83,63,15384,2147581129,2148189147,2148579995,2147793380,2147349961,2147777700,2148336795,2148272521,934,7,13,4951
1338569010,5804,162.7799987792968800,19.3791999816894530,36.5999984741210940,261.7623901367187500,124.6708984375000000,19.3769092559814450,29.7128295898437500,63,124,106,83,64,15382,2147595876,2148237458,2148681097,2147791963,2147371401,2147809654,2148399378,2148277101,965,7,13,56031
1338569103,5803,158.5700073242187500,19.3707008361816400,36.5929985046386700,261.9090881347656000,124.9150009155273400,19.3694591522216800,29.7099494934082030,64,125,102,84,64,15381,2147625490,2148330496,2148885193,2147797504,2147372297,2147873307,2148514221,2148282020,957,7,12,1867
1338569194,5804,154.6999969482422000,19.3759994506835940,36.5932998657226560,262.2983093261719000,124.7750015258789000,19.3737297058105470,29.6918201446533200,66,126,104,83,63,15372,2147651931,2148411675,2149045705,2147796681,2147400676,2147927049,2148608950,2148290624,965,7,13,56061
1338569285,5804,150.9799957275390600,19.3778991699218750,36.5923004150390600,262.4534912109375000,124.7098999023437500,19.3757190704345700,29.6844406127929700,77,130,105,84,63,15368,2147685568,2148512429,2149246308,2147796086,2147412772,2147983981,2148722916,2148297188,982,7,13,30345
1338569390,5801,146.6300048828125000,19.3859996795654300,36.5923995971679700,262.6831970214844000,124.4699020385742200,19.3830509185791000,29.6717300415039060,85,134,103,84,64,15358,2147733979,2148645412,2149514011,2147801371,2147432210,2148071597,2148891547,2148303771,746,7,13,47453
1338569481,5803,142.7700042724609400,19.3908004760742200,36.5928993225097660,262.7232055664062500,124.3067016601562500,19.3880405426025400,29.6680698394775400,89,134,105,85,63,15347,2147784868,2148782116,2149797348,2147804882,2147422098,2148142509,2149013476,2148311332,645,7,13,60236
1338569572,5804,138.7599945068359400,19.3931007385253900,36.5929985046386700,262.9128112792969000,124.2379989624023400,19.3901405334472660,29.6593303680419920,96,135,107,86,63,15341,2147851017,2148956763,2150143661,2147808877,2147449197,2148231670,2149184768,2148322541,590,7,13,62711
1338569663,5802,134.5099945068359400,19.3992004394531250,36.5934982299804700,263.2789916992187500,124.0113983154296900,19.3970603942871100,29.6410808563232420,105,134,105,85,64,15334,2147926061,2149162267,2150544740,2147814153,2147522395,2148331940,2149375954,2148344393,702,7,12,9030
1338569744,5804,130.6799926757812500,19.4083995819091800,36.5928993225097660,263.6651916503906000,123.7367019653320300,19.4054508209228500,29.6217708587646500,113,139,106,86,64,15324,2148034925,2149421869,2151020013,2147820050,2147568841,2148446994,2149574866,2148357696,467,7,12,29647
1338569835,5803,126.3199996948242200,19.4090003967285160,36.5928001403808600,264.0715026855469000,123.6960983276367200,19.4066905975341800,29.6043605804443360,118,140,107,85,64,15304,2148193709,2149794852,2151712996,2147830893,2147631579,2148627821,2149894528,2148384530,392,8,13,15118
1338569914,5804,122.6299972534179700,19.4181003570556640,36.5929985046386700,264.2706909179687500,123.4064025878906200,19.4155406951904300,29.5923595428466800,124,148,105,87,64,15307,2148378157,2150208813,2152448905,2147842605,2147702464,2148791323,2150179099,2148407149,558,7,12,55294
1338570005,5801,118.6600036621093800,19.4274005889892580,36.5926017761230500,264.6755981445312500,123.0960998535156200,19.4250202178955080,29.5717296600341800,131,142,110,88,64,15294,2148635126,2150779684,2153387538,2147863259,2147802624,2148742080,2150512082,2148443648,706,7,13,4269
1338570098,5804,114.9800033569336000,19.4393997192382800,36.5920982360839840,266.2286071777344000,122.7117996215820300,19.4367599487304700,29.5028591156005860,140,143,106,87,64,15284,2149006436,2151597193,2154700470,2147889133,2147934710,2149314505,2151043721,2148493165,307,7,12,7864
1338570201,5803,111.0000000000000000,19.4500007629394530,36.5928001403808600,266.5999145507812500,122.3397979736328100,19.4481296539306640,29.4828701019287100,144,147,105,86,65,15277,2149512630,2152613312,2156198345,2147918436,2148111387,2149686125,2151627986,2148549037,177,7,12,57738
1338570316,5801,106.5800018310546900,19.4717998504638670,36.5923004150390600,268.3019104003906000,121.6625976562500000,19.4688205718994140,29.4049301147460940,154,152,107,87,65,15248,2150317622,2154218020,2158520082,2147969508,2148392932,2150219958,2152419117,2148634797,469,7,13,27267
1338570403,5805,102.5199966430664000,19.4955005645751950,36.5924987792968750,270.0657958984375000,120.8086013793945300,19.4949092864990230,29.3230094909667970,156,163,110,88,63,15216,2151491035,2156575798,2161798418,2148051099,2148786203,2150994989,2153581851,2148766162,631,7,13,31172
1338570482,5805,98.0800018310546900,19.5286998748779300,36.5940017700195300,272.0115966796875000,119.7089004516601600,19.5285205841064450,29.2308902740478500,144,156,110,89,64,15193,2153054692,2159560914,2165620598,2148155510,2149328320,2151994002,2155020717,2148933312,617,7,13,37641
1338570537,5804,94.9300003051757800,19.5529003143310550,36.5947990417480500,273.7933959960937500,119.0257034301757800,19.5494003295898440,29.1514396667480470,129,157,109,87,63,15200,2154439954,2162068452,2168700416,2148247396,2149866633,2152997869,2156389924,2149077037,668,7,13,42911
1338570592,5806,91.6800003051757800,19.5895996093750000,36.5942993164062500,274.7974853515625000,117.7978973388671900,19.5869197845459000,29.0963401794433600,119,153,108,88,65,15191,2156222235,2165072585,2172179766,2148387474,2150567588,2154250569,2157993499,2149247835,576,7,13,22684
1338570647,5802,88.3799972534179700,19.6243991851806640,36.5926017761230500,275.5531921386719000,116.6632995605468800,19.6215991973876950,29.0519790649414060,113,150,111,88,62,15193,2158392640,2168631945,2176228297,2148552246,2151446710,2155844845,2159943424,2149450422,579,7,13,37237
1338570704,5801,85.1399993896484400,19.6546993255615230,36.5942993164062500,275.9359130859375000,115.6927032470703100,19.6512699127197270,29.0247402191162100,104,151,109,88,63,15194,2161072585,2172853138,2180916379,2148762029,2152581805,2157822326,2162278939,2149693522,626,7,13,12926
1338570759,5804,82.2200012207031200,19.7010993957519530,36.5951004028320300,276.7720031738281000,114.2154998779296900,19.6964397430419920,28.9734992980957030,102,152,108,89,62,15183,2164067922,2177296969,2185632292,2149008228,2153889700,2160025097,2164750153,2149942902,309,7,13,61634
1338570814,5803,79.4400024414062500,19.7299995422363280,36.5942001342773440,277.9096984863281000,113.1569976806640600,19.7288093566894530,28.9159603118896500,96,154,112,88,65,15171,2167067227,2181570468,2190080000,2149273252,2155317476,2162315894,2167251849,2150203574,112,7,13,13070
1338570869,5805,76.8199996948242200,19.7928009033203120,36.5973014831543000,278.7464904785156000,111.1958007812500000,19.7887802124023440,28.8587207794189450,96,155,112,88,62,15164,2170783524,2186510683,2194845430,2149581558,2157060653,2165128484,2170214528,2150513984,3276,6,13,24728
1338570924,5803,74.3600006103515600,19.9055004119873050,36.5982017517089840,278.5588989257812500,108.0217971801757800,19.8858699798584000,28.8259105682373050,87,150,112,90,62,15159,2174860022,2192067181,2200597403,2149956982,2159106614,2168165760,2173312996,2150848731,3009,7,13,36593
1338570979,5801,72.1600036621093800,19.9407005310058600,36.5997009277343750,279.1289062500000000,106.3696975708007800,19.9364204406738280,28.7831497192382800,86,151,111,90,63,15163,2178476397,2196549238,2204730505,2150287945,2161024265,2171006939,2176031277,2151137673,3529,7,13,60839
1338571036,5803,69.9800033569336000,20.1415004730224600,36.6040000915527340,278.9619140625000000,100.1970977783203100,20.1253604888916000,28.7121391296386720,82,150,110,88,60,15161,2182653558,2201940699,2210233069,2150732854,2163545965,2174681627,2179671789,2151543597,581,7,13,6366
1338571091,5805,68.2300033569336000,20.2574005126953120,36.6031990051269500,279.0356140136719000,96.3913269042968800,20.2419204711914060,28.6617107391357420,83,155,113,88,61,15148,2186342875,2206469540,2214612260,2151111762,2165823341,2177848649,2182614070,2151865554,412,7,13,16188
1338571146,5801,66.6299972534179700,20.4046993255615230,36.6040000915527340,278.6415100097656000,91.9610595703125000,20.3776607513427730,28.6215400695800780,80,152,113,90,60,15153,2189895552,2210932745,2219244269,2151590601,2167894491,2180692827,2185224329,2152166866,3480,7,13,63799
1338571201,5804,65.1800003051757800,20.4570999145507800,36.6059989929199200,278.4143981933594000,90.0889205932617200,20.4350395202636720,28.6067695617675780,76,152,111,88,61,15147,2193168365,2214824704,2223176502,2152010770,2170155958,2183818916,2188309860,2152523940,3007,7,13,2917
1338571280,5802,63.4700012207031250,20.4948997497558600,36.6071014404296900,278.2616882324219000,88.6508789062500000,20.4791297912597660,28.5947608947753900,76,148,110,88,59,15167,2196543634,2218559579,2226849088,2152579529,2172497389,2186838985,2191122797,2152887204,2583,8,13,14474
1338571370,5804,60.8800010681152340,20.5405006408691400,36.6068000793457000,277.5014038085937500,86.6404571533203100,20.5407695770263670,28.5990505218505860,74,151,110,89,57,15144,2203787757,2227105206,2235247917,2153600768,2177584713,2193387355,2196832896,2153581065,3042,7,13,53312
1338571425,5805,58.5800018310546900,20.6394996643066400,36.6018981933593750,277.0022888183594000,83.7282791137695300,20.6300907135009770,28.5821495056152340,72,148,111,88,60,15156,2210545600,2235028022,2243332233,2154675757,2182736027,2199870089,2202586057,2154265398,3190,8,13,36759
1338571480,5804,56.5499992370605500,20.7406005859375000,36.5960006713867200,276.1636047363281000,80.2062530517578100,20.7381591796875000,28.5704994201660160,69,146,111,88,60,15155,2217044781,2242167177,2250249536,2155743186,2187760877,2206113801,2207800740,2154970230,3342,7,13,48029
1338571535,5805,54.9700012207031250,20.8122997283935550,36.5875015258789060,275.4056091308594000,77.6989822387695300,20.8151206970214840,28.5687999725341800,67,146,111,90,61,15151,2221113974,2246436105,2254026971,2156464585,2192016603,2211223341,2211946806,2155469504,192,7,12,17048
1338571712,5801,52.5900001525878900,21.0196990966796880,36.5671997070312500,273.0075073242187500,70.9535064697265600,21.0222892761230470,28.5785808563232420,63,165,111,90,63,15168,2230687945,2256873481,2264354596,2158253129,2202013814,2223011776,2221172717,2156566692,3495,7,13,29117
1338571769,5803,50.7000007629394500,21.0883007049560550,36.5575981140136700,272.5332946777344000,68.8783721923828100,21.0860595703125000,28.5713405609130860,62,147,112,91,57,15172,2237141229,2263430034,2270753243,2159779456,2209315657,2231364233,2227705572,2157435163,3452,7,13,41216
1338571826,5805,48.5900001525878900,21.0942001342773440,36.5596008300781250,272.3070983886719000,68.4417114257812500,21.0994892120361330,28.5748195648193360,60,145,111,91,59,15176,2245078080,2272022875,2279563236,2161711350,2217925558,2241205412,2235652443,2158624411,3394,7,12,57468
1338571871,5801,46.8199996948242200,21.1154003143310550,36.5578002929687500,272.3330993652344000,67.8480834960937500,21.1177291870117200,28.5663394927978500,61,151,111,89,55,15181,2251280850,2278274861,2286349842,2163866560,2225835108,2250165677,2242987254,2159664283,3150,7,13,33312
1338571928,5802,44.5499992370605500,21.1210994720459000,36.5535011291503900,272.2215881347656000,67.5874633789062500,21.1257400512695300,28.5674591064453120,60,144,111,88,63,15169,2262878957,2290642889,2299404516,2167192201,2236385910,2262147904,2252952594,2161282532,2894,7,12,1040
1338571973,5804,42.7999992370605500,21.1117992401123050,36.5387001037597660,272.2977905273437500,67.7941894531250000,21.1193904876709000,28.5671291351318360,60,146,111,90,59,15157,2271465206,2299921362,2309064713,2169585536,2244301312,2270585773,2259482715,2162448182,2689,7,12,54612
1338572028,5804,40.6300010681152340,21.1506004333496100,36.5243988037109400,272.4278869628906000,66.3816223144531200,21.1628093719482420,28.5443096160888670,59,151,112,89,61,15159,2283298441,2311468416,2320645156,2173265956,2258173988,2285908059,2272338249,2164609929,1786,7,13,31330
1338572073,5805,38.3600006103515600,21.1818008422851560,36.5253982543945300,272.3355102539062500,65.5626831054687500,21.1879901885986330,28.5379104614257800,59,149,111,92,57,15139,2291976804,2318884342,2328015634,2177341869,2269595565,2297388324,2280802349,2166500964,1443,6,12,12227
1338572106,5803,36.6399993896484400,21.1989002227783200,36.5219001770019500,272.3143005371094000,64.8603820800781200,21.2095909118652340,28.5300407409667970,57,145,112,90,62,15149,2303973430,2330667072,2340331437,2181887771,2280382875,2308886921,2290573357,2168499995,1492,8,13,8529
1338572151,5803,34.2200012207031250,21.2413005828857420,36.5150985717773440,272.3323059082031000,63.5773391723632800,21.2490501403808600,28.5133094787597660,57,147,111,89,53,15154,2316873654,2343682779,2354136987,2187624685,2299088777,2328235520,2306541769,2171989065,1499,7,13,46260
1338572184,5802,32.4799995422363300,21.2660999298095700,36.5141983032226560,272.1860046386719000,62.5726203918457000,21.2799491882324220,28.5065708160400400,56,148,112,90,61,15154,2325539245,2350323245,2359773211,2191722907,2308694198,2337648795,2313282578,2173958473,1437,7,13,63686
1338572217,5803,30.7500000000000000,21.2852993011474600,36.5135993957519500,272.2644042968750000,61.9355201721191400,21.2995491027832030,28.4956398010253900,56,149,110,90,56,15147,2339235510,2364681828,2375623616,2198269056,2323225270,2352206281,2325004397,2176611410,1335,7,13,41968